Home   Weather   Richmond Hill   Past weeks
Flag for Canada

Past Weather in Richmond Hill, Ontario, Canada — Yesterday and Last 2 Weeks

Now
45 °F

Overcast.


Feels Like: 42 °F
Forecast: N/A
Wind: 5 mph from Southeast

Location: Toronto Island Airport

Current Time: Apr 20, 2019 at 6:30:35 pm

Latest Report: Apr 20, 2019 at 5:41 pm


Visibility: 9 mi

Pressure: 29.67 "Hg

Humidity: 100%

Dew Point: 45 °F

Location of Richmond HillLocation

Past Weather in Richmond Hill — Graph

°F

Richmond Hill Temperature Yesterday

Maximum temperature yesterday: 55 °F (at 6:00 am)
Minimum temperature yesterday: 43 °F (at 10:00 pm)
Average temperature yesterday: 49 °F

High & Low Weather Summary for the Past Weeks

 TemperatureHumidityPressure
High59 °F (Apr 8, 12:00 pm)100% (Apr 5, 6:00 pm)30.29 "Hg (Apr 5, 6:00 pm)
Low32 °F (Apr 11, 6:00 am)34% (Apr 15, 6:00 pm)29.31 "Hg (Apr 15, 12:00 am)
Average43 °F81%29.86 "Hg
* Reported Apr 5 5:24 pm — Apr 20 5:10 pm, Richmond Hill. Weather by CustomWeather, © 2019

Note: Actual official high and low records may vary slightly from our data, if they occured in-between our weather recording intervals... More about our weather records

Advertising

Richmond Hill Weather History for the Previous 24 Hours

Scroll right to see more
 ConditionsComfort  
Time TempWeatherWind HumidityBarometerVisibility
5:10 pm
Sat, Apr 20
45 °FMostly cloudy.8 mph93%29.66 "Hg9 mi
4:42 pm43 °FLight rain. Fog.5 mph93%29.67 "Hg6 mi
4:00 pm43 °FLight rain. Fog.6 mph93%29.68 "Hg3 mi
3:38 pm43 °FLight rain. Fog.5 mph93%29.69 "Hg3 mi
3:22 pm45 °FLight rain. Fog.13 mph93%29.70 "Hg2 mi
3:01 pm45 °FFog.9 mph93%29.66 "Hg3 mi
2:40 pm45 °FLight rain. Fog.9 mph93%29.66 "Hg4 mi
2:17 pm43 °FOvercast.13 mph100%29.67 "Hg8 mi
1:45 pm43 °FLight rain. Fog.14 mph93%29.68 "Hg5 mi
1:29 pm43 °FLight rain. Low clouds.9 mph93%29.70 "Hg9 mi
1:00 pm43 °FLow clouds.10 mph93%29.69 "Hg9 mi
12:49 pm43 °FLow clouds.14 mph93%29.69 "Hg9 mi
12:20 pm43 °FLight rain. Mostly cloudy.15 mph93%29.69 "Hg8 mi
12:16 pm43 °FLight rain. More clouds than sun.18 mph93%29.69 "Hg8 mi
11:42 am43 °FLight rain. Low clouds.15 mph93%29.72 "Hg7 mi
11:20 am43 °FLight rain. Mostly cloudy.18 mph93%29.70 "Hg7 mi
11:08 am43 °FLight rain. Fog.20 mph93%29.71 "Hg5 mi
10:20 am43 °FLight rain. Overcast.18 mph93%29.72 "Hg9 mi
10:16 am43 °FOvercast.18 mph93%29.72 "Hg9 mi
9:06 am43 °FLight rain. Overcast.16 mph93%29.72 "Hg9 mi
8:22 am43 °FLight rain. Fog.16 mph87%29.73 "Hg5 mi
8:10 am43 °FLight rain. Overcast.16 mph87%29.74 "Hg9 mi
7:00 am43 °FOvercast.16 mph87%29.72 "Hg9 mi
6:04 am43 °FOvercast.7 mph87%29.74 "Hg9 mi
5:15 am43 °FLight rain. Mostly cloudy.13 mph87%29.73 "Hg9 mi
4:38 am43 °FLight rain. Mostly cloudy.7 mph87%29.74 "Hg9 mi
3:19 am43 °FLight rain. Mostly cloudy.13 mph87%29.72 "Hg9 mi
3:15 am43 °FOvercast.12 mph87%29.72 "Hg9 mi
3:00 am43 °FLight rain. Mostly cloudy.6 mph87%29.72 "Hg9 mi
2:00 am43 °FMostly cloudy.13 mph87%29.72 "Hg9 mi
1:00 am43 °FLight rain. Mostly cloudy.14 mph87%29.71 "Hg9 mi
12:00 am43 °FLight rain. Mostly cloudy.7 mph87%29.71 "Hg9 mi
11:00 pm
Fri, Apr 19
43 °FRain. Mostly cloudy.9 mph87%29.71 "Hg7 mi
10:37 pm43 °FRain. Fog.10 mph87%29.72 "Hg5 mi
10:00 pm43 °FRain. Fog.9 mph87%29.72 "Hg6 mi
9:00 pm45 °FLight rain. Overcast.12 mph81%29.73 "Hg9 mi
8:00 pm45 °FLight rain. Fog.14 mph87%29.72 "Hg6 mi
7:00 pm46 °FLight rain. Mostly cloudy.14 mph82%29.68 "Hg8 mi
6:33 pm48 °FLight rain. Overcast.13 mph82%29.70 "Hg9 mi
6:00 pm48 °FOvercast.8 mph82%29.68 "Hg9 mi
Weather by CustomWeather, © 2019

See weather overview